TimeCST,TemperatureF,Dew PointF,Humidity,Sea Level PressureIn,VisibilityMPH,Wind Direction,Wind SpeedMPH,Gust SpeedMPH,PrecipitationIn,Events,Conditions,WindDirDegrees,DateUTC
12:15 AM,10.4,10.4,100,30.08,0.2,Calm,Calm,-,N/A,Fog,Light Freezing Fog,0,2012-11-14 06:15:00
12:35 AM,10.4,10.4,100,30.08,0.2,Calm,Calm,-,N/A,Fog,Light Freezing Fog,0,2012-11-14 06:35:00
12:55 AM,12.2,10.4,92,30.07,0.5,Calm,Calm,-,N/A,Fog,Light Freezing Fog,0,2012-11-14 06:55:00
1:15 AM,14.0,14.0,100,30.07,0.2,Calm,Calm,-,N/A,Fog,Light Freezing Fog,0,2012-11-14 07:15:00
1:35 AM,12.2,10.4,92,30.07,0.8,Calm,Calm,-,N/A,,Mostly Cloudy,0,2012-11-14 07:35:00
1:55 AM,12.2,10.4,92,30.06,0.2,Calm,Calm,-,N/A,Fog,Light Freezing Fog,0,2012-11-14 07:55:00
2:15 AM,14.0,12.2,93,30.06,0.2,Calm,Calm,-,N/A,Fog,Light Freezing Fog,0,2012-11-14 08:15:00
2:35 AM,12.2,10.4,92,30.06,0.2,Calm,Calm,-,N/A,Fog,Light Freezing Fog,0,2012-11-14 08:35:00
2:55 AM,12.2,12.2,100,30.06,3.0,SSW,3.5,-,N/A,,Clear,200,2012-11-14 08:55:00
3:15 AM,14.0,14.0,100,30.06,5.0,SW,4.6,-,N/A,,Clear,220,2012-11-14 09:15:00
3:35 AM,17.6,17.6,100,30.05,10.0,SW,3.5,-,N/A,,Clear,230,2012-11-14 09:35:00
3:55 AM,15.8,15.8,100,30.05,4.0,SSW,5.8,-,N/A,,Clear,210,2012-11-14 09:55:00
4:15 AM,17.6,17.6,100,30.04,9.0,SSW,4.6,-,N/A,,Clear,210,2012-11-14 10:15:00
4:35 AM,17.6,17.6,100,30.04,0.5,Calm,Calm,-,N/A,Fog,Light Freezing Fog,0,2012-11-14 10:35:00
4:55 AM,15.8,15.8,100,30.04,0.5,Calm,Calm,-,N/A,Fog,Light Freezing Fog,0,2012-11-14 10:55:00
5:15 AM,14.0,14.0,100,30.03,6.0,Calm,Calm,-,N/A,,Clear,0,2012-11-14 11:15:00
5:35 AM,15.8,14.0,93,30.03,2.0,Calm,Calm,-,N/A,,Clear,0,2012-11-14 11:35:00
5:55 AM,14.0,14.0,100,30.02,10.0,SSE,3.5,-,N/A,,Clear,150,2012-11-14 11:55:00
6:15 AM,14.0,14.0,100,30.01,10.0,Calm,Calm,-,N/A,,Clear,0,2012-11-14 12:15:00
6:35 AM,15.8,15.8,100,30.01,10.0,SW,3.5,-,N/A,,Clear,220,2012-11-14 12:35:00
6:55 AM,14.0,12.2,93,30.01,10.0,Calm,Calm,-,N/A,,Clear,0,2012-11-14 12:55:00
7:15 AM,17.6,17.6,100,30.01,10.0,WSW,9.2,-,N/A,,Clear,240,2012-11-14 13:15:00
7:35 AM,19.4,19.4,100,30.01,10.0,SSW,5.8,-,N/A,,Clear,210,2012-11-14 13:35:00
7:55 AM,19.4,19.4,100,30.01,10.0,West,5.8,-,N/A,,Clear,260,2012-11-14 13:55:00
8:15 AM,21.2,21.2,100,30.01,10.0,West,4.6,-,N/A,,Clear,260,2012-11-14 14:15:00
8:35 AM,23.0,23.0,100,30.01,10.0,SW,3.5,-,N/A,,Clear,230,2012-11-14 14:35:00
8:55 AM,21.2,21.2,100,30.01,10.0,SW,4.6,-,N/A,,Clear,230,2012-11-14 14:55:00
9:15 AM,23.0,23.0,100,30.01,10.0,Calm,Calm,-,N/A,,Clear,0,2012-11-14 15:15:00
9:35 AM,23.0,23.0,100,30.01,10.0,WSW,6.9,-,N/A,,Clear,240,2012-11-14 15:35:00
9:55 AM,24.8,24.8,100,30.01,10.0,WSW,4.6,-,N/A,,Clear,240,2012-11-14 15:55:00
10:15 AM,26.6,26.6,100,30.01,10.0,West,10.4,-,N/A,,Clear,260,2012-11-14 16:15:00
10:35 AM,26.6,26.6,100,30.00,10.0,SW,10.4,-,N/A,,Clear,230,2012-11-14 16:35:00
10:55 AM,28.4,28.4,100,30.00,10.0,SW,9.2,-,N/A,,Mostly Cloudy,220,2012-11-14 16:55:00
11:15 AM,30.2,30.2,100,30.00,10.0,SW,11.5,-,N/A,,Mostly Cloudy,230,2012-11-14 17:15:00
11:35 AM,30.2,30.2,100,30.00,10.0,WSW,13.8,-,N/A,,Scattered Clouds,240,2012-11-14 17:35:00
11:55 AM,30.2,30.2,100,29.99,10.0,WSW,13.8,-,N/A,,Partly Cloudy,250,2012-11-14 17:55:00
12:15 PM,32.0,32.0,100,29.98,10.0,West,13.8,-,N/A,,Clear,260,2012-11-14 18:15:00
12:35 PM,32.0,32.0,100,29.98,10.0,West,12.7,-,N/A,,Clear,260,2012-11-14 18:35:00
12:55 PM,32.0,32.0,100,29.97,10.0,WSW,13.8,17.3,N/A,,Clear,250,2012-11-14 18:55:00
1:15 PM,32.0,32.0,100,29.97,10.0,West,10.4,-,N/A,,Clear,260,2012-11-14 19:15:00
1:35 PM,32.0,28.4,87,29.97,10.0,West,9.2,-,N/A,,Clear,260,2012-11-14 19:35:00
1:55 PM,32.0,30.2,93,29.96,10.0,WSW,9.2,-,N/A,,Clear,240,2012-11-14 19:55:00
2:15 PM,33.8,30.2,87,29.96,10.0,WSW,9.2,-,N/A,,Clear,240,2012-11-14 20:15:00
2:35 PM,35.6,28.4,75,29.96,10.0,West,11.5,-,N/A,,Clear,260,2012-11-14 20:35:00
2:55 PM,33.8,30.2,87,29.95,10.0,WSW,11.5,-,N/A,,Clear,240,2012-11-14 20:55:00
3:15 PM,32.0,28.4,87,29.95,10.0,WSW,10.4,-,N/A,,Clear,240,2012-11-14 21:15:00
3:35 PM,33.8,28.4,81,29.94,10.0,SW,10.4,-,N/A,,Clear,220,2012-11-14 21:35:00
3:55 PM,32.0,28.4,87,29.95,10.0,West,11.5,-,N/A,,Clear,270,2012-11-14 21:55:00
4:15 PM,32.0,28.4,87,29.95,10.0,West,11.5,-,N/A,,Clear,260,2012-11-14 22:15:00
4:35 PM,32.0,28.4,87,29.95,10.0,West,10.4,-,N/A,,Clear,260,2012-11-14 22:35:00
4:55 PM,32.0,28.4,87,29.95,10.0,West,11.5,-,N/A,,Clear,260,2012-11-14 22:55:00
5:15 PM,32.0,28.4,87,29.96,10.0,West,11.5,-,N/A,,Clear,260,2012-11-14 23:15:00
5:35 PM,32.0,28.4,87,29.96,10.0,WSW,13.8,-,N/A,,Clear,250,2012-11-14 23:35:00
5:55 PM,32.0,28.4,87,29.96,10.0,West,15.0,-,N/A,,Clear,260,2012-11-14 23:55:00
6:15 PM,30.2,28.4,93,29.96,10.0,West,12.7,-,N/A,,Clear,260,2012-11-15 00:15:00
6:35 PM,28.4,28.4,100,29.97,10.0,West,12.7,-,N/A,,Clear,260,2012-11-15 00:35:00
6:55 PM,30.2,28.4,93,29.97,10.0,WSW,15.0,-,N/A,,Clear,250,2012-11-15 00:55:00
7:15 PM,28.4,28.4,100,29.98,10.0,West,13.8,-,N/A,,Clear,260,2012-11-15 01:15:00
7:35 PM,28.4,26.6,93,29.98,10.0,WSW,12.7,-,N/A,,Clear,250,2012-11-15 01:35:00
7:55 PM,28.4,26.6,93,29.99,10.0,West,13.8,-,N/A,,Clear,260,2012-11-15 01:55:00
8:35 PM,30.2,26.6,86,30.00,10.0,West,13.8,-,N/A,,Clear,280,2012-11-15 02:35:00
8:55 PM,28.4,26.6,93,30.02,10.0,WNW,11.5,-,N/A,,Clear,290,2012-11-15 02:55:00
9:15 PM,28.4,26.6,93,30.02,10.0,WNW,15.0,-,N/A,,Clear,300,2012-11-15 03:15:00
9:35 PM,28.4,26.6,93,30.03,10.0,WNW,17.3,-,N/A,,Clear,300,2012-11-15 03:35:00
9:55 PM,26.6,26.6,100,30.04,10.0,WNW,17.3,23.0,N/A,,Clear,300,2012-11-15 03:55:00
10:15 PM,26.6,24.8,93,30.05,10.0,WNW,17.3,-,N/A,,Clear,290,2012-11-15 04:15:00
10:35 PM,26.6,24.8,93,30.06,10.0,WNW,17.3,-,N/A,,Clear,300,2012-11-15 04:35:00
10:55 PM,24.8,24.8,100,30.07,10.0,WNW,16.1,-,N/A,,Clear,300,2012-11-15 04:55:00
11:15 PM,24.8,24.8,100,30.08,10.0,NW,17.3,-,N/A,,Clear,310,2012-11-15 05:15:00
11:35 PM,26.6,24.8,93,30.09,10.0,NW,18.4,24.2,N/A,,Clear,320,2012-11-15 05:35:00
11:55 PM,26.6,23.0,86,30.10,10.0,NW,15.0,20.7,N/A,,Clear,310,2012-11-15 05:55:00